Theta_e
317 318 321 322 320 319 318 317 313 310 310 308 308 308 306 306 309 313 316 315 315 316 309 308 309 309 309 308 310 310 310 310 311 308 308 307 309 310 315 310 312 315 316
315 319 319 319 318 319 318 316 312 310 310 308 308 306 306 306 306 309 313 314 314 314 310 308 308 309 309 308 308 307 307 309 314 307 303 300 304 308 312 311 311 312 312
313 314 314 313 315 312 313 310 310 310 313 309 308 307 307 306 306 307 307 311 314 313 311 310 310 308 308 307 307 307 306 304 308 310 306 299 297 301 308 308 307 308 309
314 309 309 312 314 310 311 312 311 309 309 308 305 303 303 302 304 306 309 310 313 314 314 311 311 313 308 307 307 312 308 306 304 309 313 308 306 300 298 303 305 305 306
310 309 311 315 312 313 310 308 306 305 307 307 306 308 305 303 305 305 305 308 309 311 311 310 309 309 308 307 307 308 307 308 306 307 311 309 310 305 300 297 300 304 305
312 314 316 308 307 307 305 304 304 306 307 308 308 302 301 300 300 300 301 302 303 305 307 309 307 308 308 308 308 309 309 308 307 311 311 308 305 304 301 298 298 298 302
310 305 304 302 302 303 304 306 304 304 306 305 303 302 301 300 299 299 299 299 300 302 304 306 306 310 313 312 309 307 308 308 306 307 309 306 306 304 301 300 298 298 300
301 300 300 301 300 302 303 303 303 302 302 302 302 301 300 299 300 299 299 299 299 302 309 309 312 312 313 311 306 306 306 306 306 305 305 305 305 304 303 302 299 296 295
299 300 300 300 300 301 301 301 301 302 304 302 302 301 301 300 300 300 301 301 304 309 310 309 310 311 311 307 304 305 305 305 305 305 305 305 304 305 305 303 301 298 293
298 298 298 299 299 298 299 301 304 302 304 301 301 305 302 305 305 302 303 304 306 308 307 306 307 309 307 307 306 305 307 304 305 305 304 304 304 304 303 302 302 299 296
297 297 298 298 299 299 301 300 304 303 301 301 301 302 301 302 304 302 302 305 306 307 307 305 305 306 305 304 307 308 308 307 307 306 306 304 303 302 303 302 301 299 298
297 297 297 298 299 299 300 304 302 302 302 304 304 302 301 301 300 301 302 302 302 303 303 304 304 303 303 304 305 307 308 308 307 309 306 306 307 302 302 301 300 299 299
296 296 297 297 299 299 300 302 302 302 306 304 304 301 301 301 300 301 302 302 302 302 303 303 302 301 302 302 303 304 305 305 306 304 303 302 301 300 300 300 301 301 302
297 296 295 296 298 299 300 301 302 303 304 305 303 301 301 305 305 304 302 301 302 302 303 303 301 301 301 302 303 304 303 304 305 304 303 302 301 299 300 301 300 300 299
297 296 295 296 297 298 300 302 301 303 303 306 304 302 302 303 304 304 304 305 302 302 303 303 301 300 301 303 302 301 301 302 303 304 305 304 308 310 307 301 299 298 298
298 298 298 298 298 299 301 303 303 302 303 306 307 304 303 304 304 303 304 303 302 305 306 306 302 299 302 303 306 304 301 303 302 302 303 304 307 307 310 310 309 303 297
298 298 299 299 299 300 302 302 303 303 304 304 306 305 304 304 307 306 306 306 306 304 305 305 304 300 300 302 302 306 302 302 302 302 302 304 306 302 300 304 307 308 309
300 299 299 298 300 300 303 303 304 303 303 304 304 305 305 304 305 306 303 303 306 302 301 301 299 298 300 301 300 302 302 301 302 302 302 302 302 300 299 303 304 304 304
299 299 299 299 299 301 303 303 303 302 303 304 304 305 305 305 307 307 307 303 301 302 302 301 300 299 299 300 299 300 300 302 302 303 301 300 301 300 299 302 303 306 307
301 300 300 300 300 301 304 302 302 301 303 307 307 307 307 305 307 308 308 308 305 303 304 303 301 304 300 298 298 299 300 300 302 303 301 302 299 298 298 299 301 301 304
301 301 299 300 300 302 305 301 303 303 305 307 309 308 307 305 305 303 307 307 306 307 304 302 301 299 297 295 297 298 299 300 302 303 302 302 301 299 297 297 297 298 300
300 301 300 300 302 303 303 305 301 304 309 308 307 307 306 307 306 296 297 300 301 302 300 301 298 297 296 297 296 295 296 299 303 304 301 299 297 296 297 298 297 297 298
301 302 301 301 302 304 303 302 304 305 307 305 304 305 305 304 302 294 293 293 294 295 295 295 294 293 293 291 294 294 294 296 298 297 299 297 297 298 299 298 298 298 298
302 302 304 302 302 304 306 304 306 309 306 304 305 305 304 306 300 299 292 289 288 288 291 293 289 288 288 289 290 291 292 296 298 297 300 301 299 299 300 300 299 297 297
303 302 303 302 303 305 305 306 308 308 305 305 305 304 305 306 305 299 295 291 288 288 286 285 289 287 286 289 290 291 292 292 293 295 298 298 298 298 297 296 298 297 296
303 303 303 303 304 305 306 307 308 307 308 305 304 303 305 306 306 297 293 293 292 292 292 291 288 289 291 292 292 293 293 292 293 297 295 295 296 296 296 295 295 295 296
Wind_Speed
2 4 4 5 1 1 2 2 4 5 5 3 3 3 4 3 3 4 6 6 6 6 4 3 3 2 1 3 4 2 2 3 2 1 4 3 4 4 3 2 3 5 5
2 3 2 2 2 3 3 5 4 4 4 2 2 1 2 3 2 4 5 5 6 5 4 3 4 4 2 3 3 2 1 3 2 2 1 3 4 4 4 3 1 5 4
4 2 1 4 3 3 5 5 4 5 5 7 4 4 4 3 4 4 4 4 5 4 4 5 4 4 2 2 3 3 2 1 2 4 3 1 1 2 3 4 1 3 2
2 2 4 2 4 4 6 5 7 7 6 6 5 5 2 3 3 3 4 5 7 7 7 6 5 4 2 3 3 3 2 2 2 1 1 2 2 2 2 3 3 3 4
7 2 3 6 7 5 5 5 6 6 5 5 4 3 4 3 3 4 7 7 6 5 5 5 6 5 3 3 3 3 2 1 3 2 3 1 1 3 2 2 3 3 4
6 3 3 6 6 7 6 3 3 4 5 6 5 6 6 6 5 5 5 5 4 5 6 6 5 4 3 4 3 3 3 2 1 1 3 3 3 2 2 2 1 0 3
3 7 7 7 7 7 6 5 7 7 7 7 6 6 6 6 5 5 4 5 4 4 6 6 5 2 4 4 4 5 5 4 2 2 1 1 2 3 3 3 0 2 1
8 6 5 6 5 5 6 6 7 7 7 5 6 6 6 4 3 4 4 4 3 5 5 5 5 7 6 4 5 3 4 4 4 5 3 2 2 2 2 3 3 2 2
6 7 7 4 3 4 5 5 6 4 4 6 6 6 5 6 5 6 4 3 4 5 6 5 5 6 5 5 5 3 5 5 4 4 5 3 2 3 2 2 3 4 0
6 5 4 4 3 2 3 6 5 3 5 6 5 5 6 6 5 5 6 6 6 6 6 6 5 5 6 6 5 4 3 5 4 3 6 3 1 3 3 3 3 2 3
6 4 3 3 4 4 5 5 5 5 5 5 5 6 6 7 6 5 6 5 5 6 6 6 6 6 6 6 5 5 5 5 5 5 6 6 4 4 4 3 3 3 2
6 5 2 3 4 5 6 5 5 6 5 4 5 6 6 7 6 6 6 6 6 6 5 5 6 6 6 6 6 6 5 5 5 6 7 6 3 5 5 4 4 3 2
6 4 3 4 3 4 5 5 5 5 5 4 4 6 6 5 6 6 6 6 6 6 6 6 6 6 6 6 6 5 6 6 6 6 6 5 5 4 3 3 2 1 1
6 3 3 3 3 4 4 5 5 4 5 5 6 5 6 5 5 4 5 6 6 6 6 5 5 5 5 5 6 6 6 6 5 5 5 4 5 3 2 2 2 2 3
4 4 3 2 3 4 5 5 4 4 4 5 5 6 6 5 5 5 5 5 5 4 5 5 5 5 5 4 5 5 5 5 4 4 3 1 3 5 3 2 2 2 2
4 4 3 3 3 3 4 5 6 5 5 6 6 6 6 6 5 5 3 4 4 4 4 4 5 5 3 8 9 4 4 3 3 3 3 3 5 5 6 4 5 6 3
4 4 3 1 0 2 3 5 5 3 6 6 6 6 6 6 5 4 4 4 5 5 5 4 4 5 5 9 8 7 4 4 4 4 4 4 3 6 6 8 8 8 10
4 4 2 1 2 2 4 4 5 4 5 5 6 5 5 6 5 5 4 4 4 5 4 5 4 3 3 6 6 7 4 4 6 6 6 5 4 4 5 5 4 5 4
4 3 3 2 0 2 5 4 5 5 5 5 5 5 5 6 5 6 6 3 3 3 3 2 3 4 5 8 8 6 5 4 5 4 3 4 5 6 5 5 6 5 6
5 5 3 1 1 4 4 3 3 4 5 5 5 5 4 5 6 6 5 4 3 3 3 2 3 2 4 8 9 4 1 4 3 4 5 7 7 9 5 2 4 6 5
5 3 3 2 2 3 4 2 4 4 5 6 5 5 6 6 6 5 5 4 3 3 4 4 3 3 4 6 8 9 3 1 2 2 4 4 9 6 7 6 3 5 6
3 4 2 2 3 2 2 2 4 4 4 6 6 7 7 5 3 5 5 5 5 4 3 2 3 3 5 6 5 6 5 5 3 5 4 5 8 8 5 1 3 7 4
4 2 2 3 1 2 1 2 3 4 4 4 5 6 6 4 3 4 5 3 4 3 3 2 2 4 4 4 9 10 11 9 4 4 7 7 8 10 8 11 10 7 5
3 2 2 1 1 0 0 2 3 3 3 5 6 6 5 5 2 2 2 3 2 2 2 2 3 4 4 5 5 5 6 7 5 7 6 6 7 8 5 5 6 5 4
3 2 3 1 3 3 2 3 4 2 4 4 5 6 4 4 3 3 2 1 3 3 2 2 2 2 4 4 5 5 5 5 4 4 4 5 5 5 5 4 5 5 5
2 1 2 1 4 4 4 4 5 3 3 4 4 5 5 3 4 3 3 6 8 8 8 7 5 3 8 11 10 11 7 2 1 4 4 3 3 3 3 4 4 4 5
Wind_Direction
199 259 271 289 221 124 143 36 36 355 24 357 344 339 331 319 322 356 342 0 341 320 332 339 348 336 352 305 297 293 270 296 230 339 316 307 289 267 237 87 140 137 145
242 273 321 102 30 158 74 54 51 22 360 341 315 315 296 306 319 337 334 333 337 325 330 341 325 332 316 329 290 263 244 251 203 175 113 346 339 27 44 128 159 126 138
75 94 25 10 67 56 106 81 64 26 12 9 357 345 343 347 350 343 331 314 331 8 25 17 342 313 305 316 297 288 265 264 307 206 148 89 215 343 359 42 79 97 152
150 280 332 344 46 67 45 51 29 16 21 13 24 26 349 323 295 302 310 334 347 358 4 357 335 312 340 322 297 293 251 187 246 54 72 84 150 124 6 343 351 11 37
185 265 301 25 33 99 70 47 42 28 8 21 10 355 3 316 310 331 342 343 349 338 333 337 330 336 335 330 332 342 337 211 170 155 115 275 198 104 120 253 325 2 8
210 235 76 80 53 42 40 53 19 356 2 31 13 19 17 350 354 340 338 333 323 315 327 322 331 333 22 14 5 2 25 14 74 159 134 187 127 180 135 108 291 128 4
71 67 68 51 42 32 22 17 12 356 354 27 10 8 359 351 345 333 323 332 323 319 325 323 336 340 45 21 24 19 10 5 52 123 136 129 128 121 118 104 219 100 254
94 98 80 87 61 36 25 16 355 0 15 21 0 355 351 344 329 323 319 321 314 313 311 337 28 37 32 33 23 18 11 26 58 87 85 96 136 125 135 147 140 47 15
100 78 68 88 72 35 358 333 5 35 359 359 351 345 346 345 335 333 319 307 313 326 354 13 28 24 17 29 26 12 11 28 43 63 80 82 38 75 99 112 125 137 103
107 90 86 65 27 16 334 358 15 36 17 6 354 357 342 337 341 339 345 356 338 336 354 7 27 23 23 13 14 0 358 46 25 58 77 71 40 71 62 70 84 91 132
121 109 77 20 9 357 19 1 15 360 16 13 357 1 345 344 345 350 347 353 338 350 4 4 29 40 29 15 20 15 16 62 60 53 71 60 52 63 50 52 65 62 96
126 128 107 60 31 14 8 10 16 21 5 360 360 2 348 354 355 356 349 356 3 358 356 13 53 41 28 21 21 19 20 43 72 60 60 44 35 46 49 60 65 66 59
121 102 70 43 354 25 2 5 5 355 339 359 357 355 351 350 358 359 358 4 9 4 16 49 51 36 24 15 9 26 41 46 62 63 62 44 52 41 27 46 61 55 44
141 134 64 35 21 15 351 4 353 359 352 355 356 352 346 340 345 7 19 17 14 15 19 45 44 41 31 23 13 28 37 53 62 63 71 71 72 80 55 65 47 32 7
122 116 123 10 2 14 351 348 342 16 352 334 342 343 335 337 346 6 10 5 26 27 32 41 35 28 28 17 21 38 58 67 55 42 56 124 111 92 87 99 3 10 328
128 113 150 35 14 6 355 348 338 357 2 349 347 351 358 338 358 8 22 2 354 25 42 47 57 38 16 7 28 68 64 56 57 41 25 12 29 4 343 301 237 203 188
150 139 152 84 24 351 336 339 339 10 11 4 354 5 2 7 6 21 17 6 348 1 22 37 50 39 13 10 16 32 29 18 5 8 3 349 347 3 348 329 296 279 237
144 149 163 99 256 338 335 341 2 6 6 359 354 6 5 351 340 344 350 345 345 354 22 49 51 43 356 354 359 353 347 336 317 308 320 311 313 318 335 333 332 317 294
190 165 178 191 41 332 320 360 3 350 358 340 348 348 1 344 343 359 349 5 35 15 26 51 38 19 350 342 346 357 345 325 304 306 311 289 291 298 345 355 337 332 312
160 169 198 131 17 314 328 19 331 357 343 340 334 343 351 343 337 336 352 346 47 59 67 44 12 345 6 357 351 351 358 5 330 309 297 285 267 283 290 336 324 319 294
174 194 181 201 262 293 338 3 6 359 316 318 4 354 347 350 352 352 359 359 22 72 72 82 36 13 11 356 357 5 28 356 339 320 302 293 294 280 286 252 239 252 311
172 151 148 258 231 297 351 52 10 308 340 356 345 339 342 334 4 16 354 23 23 51 42 80 357 333 348 348 3 22 26 8 338 327 306 299 317 315 0 126 304 316 320
191 235 222 233 272 292 262 61 286 324 336 355 345 333 334 6 51 29 26 18 32 48 28 41 353 323 338 348 347 352 353 346 345 321 309 316 41 54 47 40 24 20 33
209 237 324 75 217 219 176 242 294 327 351 349 340 332 326 325 336 91 63 68 18 28 8 358 351 332 340 342 344 343 341 341 356 354 9 31 59 61 42 23 13 19 22
192 224 177 140 214 205 234 264 278 337 335 334 338 328 306 314 267 252 197 185 224 194 191 234 254 327 336 291 303 294 317 318 317 331 20 27 26 26 16 5 16 12 12
201 168 233 304 227 220 232 258 276 293 313 333 320 303 306 298 287 212 272 242 249 217 233 244 222 285 251 288 318 319 316 348 346 51 39 23 26 42 8 10 11 14 2